FW8528 Weather Reports


Display with metric or nautical units.
time (UTC)temp
F
wind
direction
speed
MPH
gust
MPH
rain 1hr
in
rain 24hr
in
rain mn
in
humidity
%
barometer
mb
20260503213844 84 344 3.0 3.0 0.00 0.00 0.00 34 1011.7
20260503213342 84 217 1.0 1.0 0.00 0.00 0.00 34 1011.7
20260503212838 84 252 2.0 2.0 0.00 0.00 0.00 35 1011.7
20260503212336 82 348 1.0 2.0 0.00 0.00 0.00 37 1011.7
20260503211833 82 208 3.0 3.0 0.00 0.00 0.00 35 1012.0
20260503211330 81 168 4.0 5.0 0.00 0.00 0.00 35 1012.0
20260503210825 81 239 3.0 5.0 0.00 0.00 0.00 34 1012.0
20260503210323 82 236 3.0 3.0 0.00 0.00 0.00 36 1011.7
20260503205818 83 270 1.0 2.0 0.00 0.00 0.00 36 1012.0
20260503205314 82 257 2.0 2.0 0.00 0.00 0.00 36 1012.0
20260503204811 82 294 1.0 1.0 0.00 0.00 0.00 38 1012.0
20260503204309 82 300 0.0 1.0 0.00 0.00 0.00 39 1012.4
20260503203806 82 200 2.0 3.0 0.00 0.00 0.00 38 1012.4
20260503203303 81 271 1.0 2.0 0.00 0.00 0.00 38 1012.4
20260503202800 81 228 5.0 6.0 0.00 0.00 0.00 37 1012.4
20260503202258 80 299 1.0 1.0 0.00 0.00 0.00 45 1012.4
20260503201755 80 125 3.0 3.0 0.00 0.00 0.00 43 1012.4
20260503201252 79 118 3.0 5.0 0.00 0.00 0.00 42 1012.4
20260503200750 79 171 1.0 1.0 0.00 0.00 0.00 43 1012.7
20260503200246 78 133 1.0 2.0 0.00 0.00 0.00 41 1012.7
20260503195743 79 153 4.0 5.0 0.00 0.00 0.00 43 1012.7
20260503195239 79 188 1.0 2.0 0.00 0.00 0.00 45 1012.7
20260503194737 79 154 3.0 3.0 0.00 0.00 0.00 42 1012.7
20260503194233 78 35 1.0 1.0 0.00 0.00 0.00 44 1013.1
20260503193729 78 149 2.0 2.0 0.00 0.00 0.00 46 1012.7
20260503193225 78 138 1.0 1.0 0.00 0.00 0.00 43 1012.7
20260503192721 77 168 4.0 5.0 0.00 0.00 0.00 45 1013.1
20260503192216 78 227 0.0 0.0 0.00 0.00 0.00 48 1013.1
20260503191713 76 266 0.0 0.0 0.00 0.00 0.00 46 1013.1
20260503191211 76 264 1.0 1.0 0.00 0.00 0.00 47 1013.1
20260503190707 75 112 3.0 3.0 0.00 0.00 0.00 45 1013.1
20260503190204 77 121 2.0 2.0 0.00 0.00 0.00 43 1013.1
20260503185701 76 298 1.0 2.0 0.00 0.00 0.00 46 1013.4
20260503185156 75 278 1.0 2.0 0.00 0.00 0.00 45 1013.4
20260503184651 76 288 1.0 2.0 0.00 0.00 0.00 45 1013.1
20260503184148 77 159 1.0 2.0 0.00 0.00 0.00 45 1013.4
20260503183644 76 320 2.0 2.0 0.00 0.00 0.00 47 1013.4
20260503183142 76 27 0.0 0.0 0.00 0.00 0.00 46 1013.4
20260503182640 75 158 1.0 1.0 0.00 0.00 0.00 46 1013.4
20260503182139 73 230 0.0 0.0 0.00 0.00 0.00 46 1013.4
20260503181635 73 241 2.0 3.0 0.00 0.00 0.00 47 1013.4
20260503181132 72 289 1.0 2.0 0.00 0.00 0.00 49 1013.4
20260503180628 72 139 0.0 1.0 0.00 0.00 0.00 49 1013.4
20260503180126 71 297 0.0 1.0 0.00 0.00 0.00 53 1013.4
20260503175623 71 320 1.0 1.0 0.00 0.00 0.00 53 1013.7
20260503175120 70 179 2.0 2.0 0.00 0.00 0.00 57 1013.4
20260503174617 70 190 1.0 1.0 0.00 0.00 0.00 55 1013.4
20260503174114 70 266 0.0 0.0 0.00 0.00 0.00 57 1013.7
20260503173609 69 218 1.0 1.0 0.00 0.00 0.00 57 1013.4
20260503173106 69 211 1.0 1.0 0.00 0.00 0.00 57 1013.7
20260503172603 68 297 0.0 1.0 0.00 0.00 0.00 57 1013.7
20260503172100 68 114 2.0 2.0 0.00 0.00 0.00 57 1013.7
20260503171556 68 218 1.0 1.0 0.00 0.00 0.00 60 1013.7
20260503171054 68 225 0.0 0.0 0.00 0.00 0.00 59 1013.7
20260503170550 68 146 2.0 2.0 0.00 0.00 0.00 63 1013.7
20260503150942 54 263 0.0 0.0 0.00 0.00 0.00 91 1014.1
20260503150439 54 263 0.0 0.0 0.00 0.00 0.00 93 1013.7
20260503131332 50 265 0.0 0.0 0.00 0.00 0.00 99 1013.7
20260503130829 49 265 0.0 0.0 0.00 0.00 0.00 99 1013.7
20260503130327 49 265 0.0 0.0 0.00 0.00 0.00 99 1013.7
20260503110720 51 266 0.0 0.0 0.00 0.00 0.00 95 1014.1
20260503110218 51 266 0.0 0.0 0.00 0.00 0.00 95 1014.1
20260503100144 52 266 0.0 0.0 0.00 0.00 0.00 93 1014.1
20260503081533 53 266 0.0 0.0 0.00 0.00 0.00 92 1014.8
20260503081030 53 266 0.0 0.0 0.00 0.00 0.00 91 1014.4
20260503080526 53 266 0.0 0.0 0.00 0.00 0.00 91 1014.4
20260503072500 53 266 0.0 0.0 0.00 0.00 0.00 92 1014.4
20260503071957 54 266 0.0 0.0 0.00 0.00 0.00 92 1014.4
20260503071454 54 266 0.0 0.0 0.00 0.00 0.00 94 1014.4
20260503070950 55 266 0.0 0.0 0.00 0.00 0.00 92 1014.4
20260503070447 55 266 0.0 0.0 0.00 0.00 0.00 90 1014.4
20260503054906 56 266 0.0 0.0 0.00 0.00 0.00 99 1014.4
20260503054402 56 266 0.0 0.0 0.00 0.00 0.00 98 1014.1
20260503053900 56 266 0.0 0.0 0.00 0.00 0.00 98 1014.4
20260503053358 56 266 0.0 0.0 0.00 0.00 0.00 98 1014.1
20260503052854 57 266 0.0 0.0 0.00 0.00 0.00 98 1014.1
20260503052351 56 266 0.0 0.0 0.00 0.00 0.00 97 1014.4
20260503051847 57 266 0.0 0.0 0.00 0.00 0.00 96 1014.1
20260503051344 56 266 0.0 0.0 0.00 0.00 0.00 95 1014.1
20260503050841 57 266 0.0 0.0 0.00 0.00 0.00 96 1014.1
20260503050337 57 266 0.0 0.0 0.00 0.00 0.00 96 1014.1
20260503045834 57 266 0.0 0.0 0.00 0.00 0.00 96 1014.1
20260503045332 57 266 0.0 0.0 0.00 0.00 0.00 95 1014.1
20260503044828 58 266 0.0 0.0 0.00 0.00 0.00 95 1014.1
20260503044325 58 266 0.0 0.0 0.00 0.00 0.00 94 1014.1
20260503043822 58 266 0.0 0.0 0.00 0.00 0.00 91 1014.1
20260503043319 59 266 0.0 0.0 0.00 0.00 0.00 91 1014.1
20260503042815 59 266 0.0 0.0 0.00 0.00 0.00 85 1013.7
20260503042313 59 266 0.0 0.0 0.00 0.00 0.00 89 1014.1
20260503041808 59 266 0.0 0.0 0.00 0.00 0.00 91 1014.1
20260503041306 59 266 0.0 0.0 0.00 0.00 0.00 88 1013.7
20260503040804 60 266 0.0 0.0 0.00 0.00 0.00 92 1013.7
20260503040301 60 266 0.0 0.0 0.00 0.00 0.00 91 1014.1
20260503035757 60 266 0.0 0.0 0.00 0.00 0.00 88 1013.7
20260503035255 60 265 0.0 0.0 0.00 0.00 0.00 90 1013.7
20260503034752 61 266 0.0 0.0 0.00 0.00 0.00 88 1013.7
20260503034249 61 266 0.0 0.0 0.00 0.00 0.00 78 1013.4
20260503033747 62 266 0.0 0.0 0.00 0.00 0.00 87 1013.4
20260503033244 62 266 0.0 0.0 0.00 0.00 0.00 84 1013.4
20260503032742 62 265 0.0 0.0 0.00 0.00 0.00 84 1013.4
20260503032240 63 265 0.0 0.0 0.00 0.00 0.00 87 1013.4
20260503031737 63 266 0.0 0.0 0.00 0.00 0.00 79 1013.4
20260503031235 64 265 0.0 0.0 0.00 0.00 0.00 86 1013.1
20260503030731 64 265 0.0 0.0 0.00 0.00 0.00 81 1013.1
20260503030228 64 266 0.0 0.0 0.00 0.00 0.00 76 1013.1
20260503025725 65 266 0.0 0.0 0.00 0.00 0.00 80 1013.1
20260503025222 65 266 0.0 0.0 0.00 0.00 0.00 75 1013.1
20260503024719 66 265 0.0 0.0 0.00 0.00 0.00 79 1013.1
20260503024216 67 265 0.0 0.0 0.00 0.00 0.00 67 1012.7
20260503023713 67 266 0.0 0.0 0.00 0.00 0.00 66 1012.7
20260503023210 68 265 0.0 0.0 0.00 0.00 0.00 73 1012.7
20260503022706 68 264 0.0 0.0 0.00 0.00 0.00 66 1013.1
20260503022205 69 257 0.0 1.0 0.00 0.00 0.00 64 1012.7
20260503021703 69 260 0.0 0.0 0.00 0.00 0.00 61 1012.7
20260503021159 70 257 0.0 0.0 0.00 0.00 0.00 64 1012.7
20260503020656 71 270 0.0 0.0 0.00 0.00 0.00 58 1012.7
20260503020154 71 274 1.0 1.0 0.00 0.00 0.00 56 1012.7
20260503015650 72 252 0.0 1.0 0.00 0.00 0.00 55 1012.7
20260503015147 73 343 0.0 0.0 0.00 0.00 0.00 49 1012.7
20260503014643 74 256 1.0 1.0 0.00 0.00 0.00 49 1012.7
20260503014141 74 298 1.0 1.0 0.00 0.00 0.00 46 1013.1
20260503013638 74 231 1.0 1.0 0.00 0.00 0.00 50 1012.7
20260503013136 74 293 2.0 2.0 0.00 0.00 0.00 45 1012.7
20260503012633 75 222 1.0 1.0 0.00 0.00 0.00 48 1013.1
20260503012130 76 136 2.0 2.0 0.00 0.00 0.00 43 1012.7
20260503011626 77 222 1.0 1.0 0.00 0.00 0.00 44 1012.7
20260503011124 77 305 3.0 5.0 0.00 0.00 0.00 40 1012.7
20260503010620 77 245 0.0 0.0 0.00 0.00 0.00 45 1012.7
20260503010117 77 271 2.0 2.0 0.00 0.00 0.00 41 1012.7
20260503005614 78 272 1.0 1.0 0.00 0.00 0.00 47 1013.1
20260503005111 77 228 1.0 1.0 0.00 0.00 0.00 44 1012.7
20260503004607 77 245 1.0 1.0 0.00 0.00 0.00 43 1012.7
20260503004106 77 211 0.0 1.0 0.00 0.00 0.00 42 1012.7
20260503003603 76 241 1.0 1.0 0.00 0.00 0.00 46 1013.1
20260503003059 77 226 1.0 1.0 0.00 0.00 0.00 49 1012.7
20260503002556 77 236 1.0 1.0 0.00 0.00 0.00 43 1013.1
20260503002053 77 233 2.0 2.0 0.00 0.00 0.00 43 1013.1
20260503001549 77 214 3.0 3.0 0.00 0.00 0.00 43 1013.1
20260503001047 79 268 0.0 1.0 0.00 0.00 0.00 44 1013.1
20260503000544 79 240 1.0 2.0 0.00 0.00 0.00 41 1013.1
20260503000041 78 177 3.0 3.0 0.00 0.00 0.00 42 1013.1
20260502235537 78 193 8.0 9.0 0.00 0.00 0.00 40 1012.7
20260502235036 78 213 1.0 1.0 0.00 0.00 0.00 40 1013.1
20260502234531 79 249 3.0 5.0 0.00 0.00 0.00 39 1013.1
20260502234029 78 145 5.0 7.0 0.00 0.00 0.00 45 1013.1
20260502233529 79 160 5.0 6.0 0.00 0.00 0.00 42 1013.1
20260502233027 80 213 2.0 2.0 0.00 0.00 0.00 43 1013.1
20260502232523 81 246 2.0 2.0 0.00 0.00 0.00 38 1013.4
20260502232020 80 210 0.0 1.0 0.00 0.00 0.00 40 1013.1
20260502231517 80 161 1.0 1.0 0.00 0.00 0.00 42 1013.4
20260502231015 79 218 1.0 2.0 0.00 0.00 0.00 42 1013.4
20260502230513 79 253 2.0 2.0 0.00 0.00 0.00 40 1013.4
20260502230012 79 176 6.0 8.0 0.00 0.00 0.00 41 1013.7
20260502225511 80 169 5.0 6.0 0.00 0.00 0.00 41 1013.7
20260502225009 81 253 3.0 6.0 0.00 0.00 0.00 37 1014.1
20260502224505 79 241 7.0 8.0 0.00 0.00 0.00 41 1014.1
20260502224002 79 173 2.0 2.0 0.00 0.00 0.00 46 1014.1
20260502223459 79 125 3.0 5.0 0.00 0.00 0.00 45 1014.1
20260502222957 78 59 0.0 1.0 0.00 0.00 0.00 48 1014.1
20260502222455 80 111 4.0 5.0 0.00 0.00 0.00 45 1014.1
20260502221951 78 253 2.0 3.0 0.00 0.00 0.00 46 1014.1
20260502221447 79 75 4.0 7.0 0.00 0.00 0.00 45 1014.1
20260502220944 78 249 0.0 0.0 0.00 0.00 0.00 45 1014.4
20260502220440 77 205 1.0 2.0 0.00 0.00 0.00 51 1014.1
20260502215937 77 118 2.0 3.0 0.00 0.00 0.00 47 1014.4
20260502215434 75 211 1.0 1.0 0.00 0.00 0.00 51 1014.4
20260502214931 75 123 3.0 6.0 0.00 0.00 0.00 50 1014.1
20260502214427 76 90 3.0 3.0 0.00 0.00 0.00 52 1014.4